Presure
130 127 130 131 124 151 144 92 150 112 141 136 144 144 160 146 223 272 217 139 257 410 349 364 418 207 134 223 272 143 158 118 199 247 163 138 137 162 193 214 204 205 201 183 190
144 132 135 171 153 169 193 103 107 125 114 130 149 140 127 210 227 184 130 448 330 430 414 286 387 119 388 134 362 317 253 193 135 140 128 144 173 166 168 173 199 143 197 127 194
109 141 106 130 133 109 120 186 124 146 103 136 155 160 263 170 411 138 449 441 429 414 419 390 391 384 130 355 231 274 227 144 123 143 139 130 120 158 151 178 165 233 188 205 211
107 126 139 132 125 104 111 122 139 123 160 161 121 142 241 180 193 470 459 455 425 405 405 395 381 374 376 358 347 348 270 331 142 145 139 197 138 162 155 65 157 150 216 225 63
108 180 177 142 123 163 126 150 172 118 162 150 158 278 242 151 219 429 427 430 436 415 395 392 382 383 357 359 210 327 131 128 319 280 250 235 242 196 156 166 161 221 200 233 223
121 153 161 125 167 185 140 158 128 157 135 166 200 145 200 401 324 312 432 425 423 425 399 186 343 378 373 352 359 375 251 128 133 297 270 252 240 205 210 196 168 166 159 214 234
180 145 161 131 171 150 159 115 116 173 168 188 272 194 242 390 434 401 395 410 413 151 420 395 278 376 379 364 352 376 343 133 132 316 114 269 142 246 241 212 217 265 223 211 240
184 140 155 174 160 154 142 95 157 120 124 127 151 266 444 397 431 421 402 387 257 392 410 361 260 380 217 366 359 367 369 331 264 316 307 203 139 236 230 236 252 261 176 227 219
179 170 170 169 132 135 159 143 162 162 180 126 167 179 274 344 421 289 383 386 137 139 145 406 402 281 381 370 367 377 348 225 287 311 282 306 264 297 146 230 243 255 224 243 186
160 155 133 129 155 137 138 181 143 125 151 266 252 337 463 216 139 359 371 360 254 133 216 345 388 403 406 376 383 387 328 333 320 317 274 307 268 169 258 195 241 184 259 150 238
167 155 168 124 143 163 142 176 168 176 247 176 286 386 438 172 410 392 372 318 353 354 141 141 395 391 367 395 386 386 379 365 314 291 110 97 294 272 268 283 243 153 175 255 245
141 149 135 139 150 137 159 150 129 140 236 207 264 249 318 416 401 383 362 349 248 287 135 353 370 388 397 388 378 375 379 349 306 229 314 313 293 179 261 170 250 271 289 251 242
165 153 158 163 149 149 158 167 168 221 269 147 241 313 346 415 392 379 248 337 194 141 134 339 345 385 374 389 382 374 369 345 358 305 159 258 164 289 287 274 265 216 148 219 255
123 160 150 148 125 164 149 187 198 190 264 167 266 265 388 406 382 218 356 341 330 290 287 323 338 353 377 394 384 382 368 359 359 308 301 301 282 137 263 280 276 294 185 175 256
169 165 120 155 142 165 167 177 220 212 220 245 332 385 411 397 378 355 348 340 328 322 319 318 319 340 382 356 376 373 354 353 340 344 301 322 313 272 276 262 269 287 238 261 216
156 144 141 147 161 161 161 178 238 215 265 295 249 418 410 387 374 358 341 334 323 316 312 313 309 323 344 368 365 364 341 313 346 331 333 330 322 276 273 273 281 271 279 278 199
142 163 122 143 152 149 224 165 247 253 256 315 426 355 402 379 367 352 340 329 321 311 307 346 311 311 326 376 346 358 351 343 294 339 277 320 312 294 274 269 276 268 272 261 243
120 122 133 160 163 165 162 170 231 268 292 330 432 332 395 377 360 345 335 324 319 311 316 422 432 312 322 350 355 334 344 331 336 337 336 326 312 291 269 263 263 268 268 305 290
140 146 135 156 147 126 222 176 240 263 258 332 423 408 393 372 353 342 328 320 311 310 403 398 398 333 314 331 368 333 344 277 166 325 312 311 334 316 309 279 236 268 274 285 291
151 137 161 131 155 170 178 235 253 274 274 315 420 410 386 366 350 337 327 317 312 307 402 396 405 415 304 319 353 327 316 333 326 317 316 299 309 289 296 293 274 277 279 279 298
135 152 145 114 172 189 237 249 244 268 268 307 418 401 383 358 346 332 321 311 306 302 394 386 384 404 301 313 336 344 328 323 322 309 305 308 308 309 325 298 282 270 275 281 286
149 153 151 145 137 247 259 247 247 272 293 421 411 397 377 353 344 331 311 305 301 300 366 375 375 394 389 299 316 342 314 307 301 341 316 316 324 322 292 294 267 273 274 271 273
118 148 122 141 158 244 257 256 263 290 305 418 412 386 374 350 340 324 309 300 295 296 375 368 363 379 387 292 302 334 340 302 313 315 335 328 312 282 297 315 293 272 274 270 275
147 144 149 199 182 255 226 255 226 298 301 416 405 383 362 350 332 317 304 294 292 288 364 357 370 357 375 362 292 301 336 360 322 305 311 304 345 300 289 307 300 288 284 275 272
125 158 144 160 132 249 262 247 292 298 377 407 397 379 350 342 329 310 297 292 289 282 353 355 352 362 362 371 307 291 321 326 331 289 296 310 304 338 289 280 294 292 291 285 275
150 134 162 133 219 227 253 255 294 314 425 400 389 373 348 336 314 304 293 289 286 355 349 346 346 354 364 360 382 287 289 327 315 331 298 311 299 302 315 301 283 293 280 280 286
165 166 245 137 244 218 255 263 300 374 412 396 377 360 347 323 313 299 290 288 286 378 359 347 346 341 350 367 383 364 274 320 310 331 319 293 311 289 284 326 274 284 286 277 283
Wind_Speed
15 29 20 21 26 39 36 21 40 45 31 37 44 52 55 61 79 85 48 63 50 41 46 46 57 65 43 65 69 42 53 62 63 69 62 27 36 57 72 78 79 81 74 71 76
33 26 27 50 44 53 65 47 45 32 42 49 50 55 68 73 79 63 65 30 41 41 47 56 56 39 71 37 77 75 66 64 54 49 40 42 65 65 62 62 75 44 68 47 72
26 37 34 29 28 35 34 66 37 41 47 44 59 65 101 64 51 66 34 32 32 38 43 51 56 63 41 72 52 68 70 64 57 51 33 41 43 64 53 65 61 105 76 85 90
32 29 39 31 34 35 45 34 38 55 62 62 65 68 92 66 67 34 28 31 30 38 42 46 54 61 64 65 74 76 69 82 45 51 40 67 46 54 55 11 60 49 90 100 9
33 60 57 46 33 53 41 46 64 41 65 58 67 113 97 64 80 41 28 25 30 40 44 45 51 55 65 70 55 70 58 59 87 89 85 92 89 71 63 64 57 85 81 103 102
30 46 56 31 60 78 46 51 41 63 53 69 88 71 82 66 67 41 28 25 26 36 44 43 49 56 62 70 71 73 70 56 53 88 92 93 90 73 78 71 64 64 59 91 108
65 56 56 29 66 45 56 56 59 72 68 79 115 85 99 65 37 36 29 23 23 38 42 50 44 58 61 68 70 71 75 55 50 85 40 94 46 92 93 94 83 98 93 90 109
68 41 55 73 58 50 43 32 62 66 67 69 67 115 52 54 37 31 25 23 34 23 31 42 42 56 46 64 68 69 76 81 76 84 89 69 51 93 90 94 94 97 70 99 94
68 70 70 71 35 32 62 46 64 67 79 66 70 80 89 71 31 35 24 21 44 43 41 34 44 44 57 62 67 67 69 50 82 81 85 86 86 88 50 86 92 92 83 105 71
63 57 44 26 56 55 51 85 56 64 60 111 113 73 44 32 38 32 27 22 30 47 32 30 36 45 52 60 62 60 50 76 80 81 82 80 83 61 90 66 94 60 97 44 101
68 58 71 27 51 72 53 85 77 86 111 81 109 84 41 33 31 26 23 26 19 18 45 45 33 38 45 48 52 58 58 66 79 81 40 41 81 84 88 91 90 52 63 99 101
47 55 36 43 60 39 65 56 64 69 113 102 118 110 86 36 28 23 22 20 33 25 47 21 24 35 39 46 52 54 55 54 73 70 83 83 85 60 88 59 88 92 93 97 103
74 62 67 73 63 60 75 78 80 101 109 64 93 91 63 31 27 22 28 20 39 42 40 19 25 33 38 42 49 54 55 65 68 83 47 77 54 89 85 93 89 71 52 84 102
37 70 63 61 42 83 61 101 102 93 115 78 121 77 46 31 27 33 17 18 19 25 24 18 24 27 35 39 45 49 53 61 66 85 85 89 89 41 83 89 86 87 63 66 92
78 77 37 70 55 81 83 92 114 100 108 121 130 56 34 29 27 22 19 19 19 19 20 19 22 26 35 36 42 50 54 61 70 71 85 87 98 79 86 91 91 87 88 83 93
69 58 54 64 76 78 75 100 117 98 114 114 120 37 30 29 26 22 20 19 19 18 20 21 22 26 30 40 43 51 55 58 68 77 81 83 89 90 86 86 90 88 92 90 75
57 79 42 62 71 65 104 84 118 116 121 130 42 61 28 28 25 23 20 19 19 17 18 16 23 27 30 40 44 52 57 60 62 74 78 81 89 86 87 90 91 94 93 83 95
40 54 52 80 84 86 82 84 115 106 108 115 33 68 27 25 25 23 21 20 19 16 16 5 2 31 33 38 43 48 56 58 59 62 63 75 87 84 87 91 90 93 92 92 98
61 67 57 75 66 51 113 98 119 110 113 127 32 29 25 24 23 23 21 19 19 17 3 4 14 25 35 39 45 51 54 55 47 62 72 74 77 81 90 95 80 92 92 86 87
70 61 85 53 78 98 98 117 112 106 103 116 29 25 22 22 22 22 23 20 19 17 2 1 7 7 37 40 43 50 56 60 61 64 69 76 74 78 84 92 94 93 91 81 79
58 76 66 52 102 97 112 112 115 111 108 107 28 25 21 23 21 21 23 22 20 16 5 2 5 5 38 44 46 50 54 54 54 63 69 71 75 77 78 88 94 90 88 84 79
70 80 77 59 50 109 106 109 108 111 109 34 26 24 20 23 19 20 23 23 21 18 7 7 6 5 17 43 46 51 54 56 62 48 65 65 66 68 78 81 89 88 85 76 75
56 78 51 65 88 110 105 104 104 114 117 31 25 23 21 19 20 20 21 24 22 20 5 10 12 7 16 44 46 51 57 59 63 61 59 59 65 75 72 78 92 88 85 76 73
71 71 77 104 87 107 97 104 93 118 115 28 26 21 24 18 20 20 22 24 24 21 10 11 11 20 20 37 48 48 49 53 59 55 53 59 50 63 70 75 81 90 92 82 74
60 76 75 93 52 106 101 105 120 116 63 27 27 19 21 21 19 23 23 25 26 23 16 14 15 19 28 32 54 48 51 50 50 58 59 58 58 52 69 73 74 80 82 84 78
76 62 93 48 97 98 99 103 121 120 28 28 26 23 21 20 21 23 25 27 27 16 19 15 15 14 18 31 33 49 47 50 55 58 62 57 60 59 56 66 71 73 74 75 78
86 78 105 53 102 101 99 105 121 78 31 27 26 26 22 22 23 25 27 29 30 24 26 18 15 17 17 15 23 46 51 51 56 58 59 58 54 61 64 52 69 70 72 71 73
Wind_Direction
305 300 309 303 280 311 296 317 300 285 311 292 310 310 313 299 314 318 289 272 278 250 254 238 227 260 275 252 231 269 254 228 223 222 230 231 236 245 234 215 221 223 223 222 225
316 320 314 316 318 319 319 292 298 314 301 279 313 286 278 321 305 288 280 266 267 247 237 248 224 236 220 245 220 225 234 228 249 254 246 232 244 244 247 243 222 243 222 215 224
274 320 304 316 318 322 280 322 284 323 307 306 322 324 325 309 310 283 282 268 247 244 242 232 226 223 252 220 238 226 232 246 231 255 241 235 230 246 244 238 240 220 230 219 221
262 298 319 319 281 322 288 286 320 280 323 327 297 304 325 309 312 303 282 262 250 239 238 232 228 224 222 225 223 218 220 218 249 250 244 223 228 242 246 222 237 247 222 220 202
266 320 320 314 313 322 304 324 326 322 323 312 326 323 325 304 322 309 297 269 243 232 232 228 226 225 221 219 224 216 228 232 217 215 219 216 216 222 247 243 246 221 227 221 221
282 311 323 286 326 324 305 321 288 330 300 318 326 307 312 322 327 304 292 277 250 232 227 256 229 223 222 222 220 217 219 235 234 214 215 216 215 220 221 225 236 245 242 224 222
319 313 323 308 325 314 328 296 295 331 325 335 324 322 326 328 314 307 299 282 261 261 227 229 236 222 222 221 221 220 212 235 237 215 243 214 229 214 215 223 222 211 218 224 221
320 321 325 323 324 328 314 309 329 293 297 299 311 328 325 327 315 304 297 287 269 252 232 238 245 225 245 223 225 220 214 212 209 214 214 220 229 216 219 218 216 213 240 220 222
321 321 323 323 309 314 332 332 330 333 335 300 325 312 330 331 316 309 305 292 268 272 266 230 230 240 222 221 222 221 214 216 210 210 217 215 215 211 233 220 218 217 219 217 229
319 320 323 308 326 326 336 330 324 297 325 323 325 327 330 305 306 307 306 301 280 277 262 245 229 228 225 221 222 222 220 207 208 208 215 213 213 223 217 225 216 226 213 237 217
318 321 322 299 332 327 338 331 338 340 326 337 327 340 329 294 316 308 301 288 287 274 275 280 230 226 224 222 218 214 209 208 205 209 216 250 212 213 214 217 218 230 226 215 216
315 318 327 309 331 319 334 334 306 317 329 337 332 340 337 326 319 312 300 291 280 276 283 245 236 228 219 218 214 211 206 208 206 211 204 202 208 225 213 227 215 218 215 213 217
320 323 324 324 331 337 333 337 338 324 331 309 331 339 337 327 321 317 294 293 277 275 284 247 235 221 220 216 211 208 203 205 205 206 233 206 227 210 208 213 215 221 233 222 214
314 321 326 331 302 323 335 333 335 336 329 319 336 337 334 330 325 296 308 291 278 274 271 245 241 228 218 214 209 206 200 202 201 206 205 203 208 238 209 213 216 214 222 233 219
319 322 302 326 332 330 334 334 331 332 337 334 345 334 330 329 326 324 314 299 283 268 260 250 240 230 215 207 207 201 199 201 202 204 205 203 202 208 208 213 215 213 219 208 223
320 319 327 331 328 331 336 333 329 327 331 340 338 331 331 328 328 325 317 304 290 272 259 245 228 230 214 208 204 201 200 204 205 206 205 205 203 208 210 213 216 215 217 214 231
322 321 317 333 329 331 331 339 329 330 329 342 331 338 329 327 327 326 323 313 297 278 259 257 225 223 214 209 203 203 200 201 209 206 207 204 204 207 205 213 214 219 219 215 215
314 322 326 327 330 332 336 338 331 332 344 345 331 338 328 327 328 328 323 318 307 286 268 13 155 213 210 206 201 205 203 203 207 208 206 208 206 203 207 213 217 219 219 217 217
324 321 326 329 331 311 329 334 330 333 332 345 328 330 331 327 329 325 321 321 311 302 297 270 208 214 208 205 200 201 203 207 228 204 208 209 212 205 202 205 216 220 223 222 220
319 323 323 324 332 329 331 329 331 338 340 345 331 328 330 326 327 325 321 323 319 313 295 309 151 181 209 204 200 200 203 203 201 204 208 208 210 207 206 204 214 219 224 224 225
321 322 325 313 325 331 329 329 330 335 337 345 331 329 331 324 326 325 321 324 324 322 97 150 191 195 211 204 198 200 204 202 204 205 208 208 210 206 207 204 212 218 222 224 225
322 324 324 330 335 330 331 329 331 337 342 333 331 327 330 323 329 323 323 323 325 328 300 178 187 149 199 210 204 196 199 203 208 201 209 210 211 208 209 207 215 218 222 221 222
322 324 322 332 327 329 330 331 334 344 344 333 331 332 327 325 325 321 323 322 328 328 245 207 202 171 188 212 208 203 198 202 206 210 207 209 210 209 208 208 207 217 221 222 223
323 323 323 324 333 331 334 331 335 343 345 332 334 336 323 333 323 324 323 323 325 321 240 218 192 192 176 197 209 207 204 194 205 210 209 209 208 211 209 211 209 212 217 221 224
324 318 325 324 331 330 331 328 341 343 342 336 336 339 324 331 326 320 324 325 323 315 244 220 219 190 190 196 206 206 203 200 199 208 208 207 207 214 208 212 210 212 214 216 221
322 324 321 333 328 334 330 333 341 343 338 336 340 337 330 328 325 324 327 325 322 227 230 231 221 205 201 206 203 208 202 199 195 201 207 206 209 204 209 207 211 213 215 215 217
319 324 325 334 327 327 330 335 344 341 338 340 340 336 335 330 326 330 329 326 323 211 200 206 190 200 215 213 212 201 204 194 199 201 203 205 208 205 208 204 210 212 214 215 216